Weather History for Budapest Ferihegy, Hungary

Change the Weather History Date:

Saturday, April 19, 2014

  Actual Average Record
Temperature  
Mean Temperature 58 °F -  
Max Temperature 66 °F 66 °F 73 °F (2013)
Min Temperature 50 °F 44 °F 35 °F (2012)
Degree Days  
Heating Degree Days 7    
Growing Degree Days 8 (Base 50)    
Moisture  
Dew Point 41 °F    
Average Humidity 54    
Maximum Humidity 71    
Minimum Humidity 40    
Precipitation  
Precipitation 0.00 in - - ()
Sea Level Pressure  
Sea Level Pressure 29.71 in    
Wind  
Wind Speed 11 mph ()    
Max Wind Speed 18 mph    
Max Gust Speed 26 mph    
Visibility 6.2 miles    
Events Rain , Thunderstorm    
Averages and records for this station are not official NWS values.
T = Trace of Precipitation, MM = Missing Value Source: Averaged Metar Reports

Daily Weather History Graph

Daily Weather History Graph

Search for Another Location

Airport:

Trip Planner

Search our weather history database for the weather conditions in past years. The results will help you decide how hot, cold, wet, or windy it might be!

Date:

Astronomy

Apr. 19, 2014 Rise Set
Actual Time 5:47 AM CEST 7:37 PM CEST
Civil Twilight 5:14 AM CEST 8:10 PM CEST
Nautical Twilight 4:34 AM CEST 8:50 PM CEST
Astronomical Twilight 3:51 AM CEST 9:34 PM CEST
Moon No Moon Rise 8:38 AM CEST (4/19)
Length of Visible Light 14h 55m
Length of Day
13h 50m
Waning Gibbous, 81% of the Moon is Illuminated
Apr 19
Waning Gibbous
Apr 22
Last Quarter
Apr 29
New
May 7
First Quarter
May 14
Full

Hourly Weather History & Observations

Time (CEST) Temp. Dew Point Humidity Pressure Visibility Wind Dir Wind Speed Gust Speed Precip Events Conditions
12:00 AM 57.2 °F 39.2 °F 51% 29.71 in - NW 10.4 mph - N/A   Clear
12:30 AM 55.4 °F 39.2 °F 54% 29.71 in - NW 8.1 mph - N/A   Clear
1:00 AM 55.4 °F 41.0 °F 58% 29.71 in - NW 9.2 mph - N/A   Clear
1:30 AM 55.4 °F 39.2 °F 54% 29.71 in - NNW 10.4 mph - N/A   Clear
2:00 AM 55.4 °F 39.2 °F 54% 29.68 in - NW 10.4 mph - N/A   Clear
2:30 AM 57.2 °F 39.2 °F 51% 29.68 in - NW 12.7 mph - N/A   Clear
3:00 AM 55.4 °F 41.0 °F 58% 29.68 in - NNW 10.4 mph - N/A   Clear
3:30 AM 55.4 °F 41.0 °F 58% 29.68 in - NW 10.4 mph - N/A   Clear
4:00 AM 53.6 °F 41.0 °F 62% 29.68 in - NW 9.2 mph - N/A   Clear
4:30 AM 51.8 °F 41.0 °F 67% 29.68 in - NW 8.1 mph - N/A   Clear
5:00 AM 50.0 °F 41.0 °F 71% 29.68 in - NW 10.4 mph - N/A   Clear
5:30 AM 50.0 °F 41.0 °F 71% 29.68 in - NW 8.1 mph - N/A   Clear
6:00 AM 55.4 °F 41.0 °F 58% 29.68 in - NNW 10.4 mph - N/A   Clear
6:30 AM 55.4 °F 41.0 °F 58% 29.68 in - NNW 10.4 mph - N/A   Clear
7:00 AM 55.4 °F 41.0 °F 58% 29.68 in - NNW 11.5 mph - N/A   Clear
7:30 AM 59.0 °F 41.0 °F 51% 29.68 in - NNW 13.8 mph - N/A   Clear
8:00 AM 60.8 °F 41.0 °F 48% 29.68 in - NNW 13.8 mph - N/A   Clear
8:30 AM 60.8 °F 42.8 °F 52% 29.68 in - North 11.5 mph - N/A   Clear
9:00 AM 66.2 °F 42.8 °F 43% 29.68 in - North 13.8 mph - N/A   Clear
9:30 AM 66.2 °F 42.8 °F 43% 29.68 in - NNE 12.7 mph - N/A   Clear
10:00 AM 66.2 °F 41.0 °F 40% 29.68 in - NNE 18.4 mph - N/A   Clear
10:30 AM 64.4 °F 41.0 °F 42% 29.68 in - ENE 16.1 mph - N/A   Clear
11:00 AM 62.6 °F 42.8 °F 48% 29.71 in 6.2 mi ENE 17.3 mph - N/A Rain Light Rain
11:30 AM 62.6 °F 42.8 °F 48% 29.71 in - ENE 9.2 mph - N/A   Clear
12:00 PM 64.4 °F 44.6 °F 49% 29.71 in - ENE 10.4 mph - N/A   Clear
12:30 PM 64.4 °F 42.8 °F 45% 29.71 in - ENE 16.1 mph - N/A   Clear
1:00 PM 64.4 °F 44.6 °F 49% 29.71 in 6.2 mi ENE 17.3 mph - N/A   Mostly Cloudy
1:30 PM 64.4 °F 44.6 °F 49% 29.71 in 6.2 mi ENE 15.0 mph - N/A   Mostly Cloudy
2:00 PM 62.6 °F 44.6 °F 52% 29.71 in 6.2 mi ENE 16.1 mph - N/A   Mostly Cloudy
2:30 PM 64.4 °F 44.6 °F 49% 29.71 in 6.2 mi East 16.1 mph - N/A   Mostly Cloudy
3:00 PM 64.4 °F 44.6 °F 49% 29.71 in 6.2 mi East 15.0 mph - N/A   Mostly Cloudy
3:30 PM 66.2 °F 42.8 °F 43% 29.68 in 6.2 mi East 13.8 mph - N/A   Mostly Cloudy
4:00 PM 66.2 °F 41.0 °F 40% 29.68 in 6.2 mi ENE 11.5 mph - N/A   Scattered Clouds
4:30 PM 60.8 °F 39.2 °F 45% 29.71 in 6.2 mi NE 13.8 mph 26.5 mph N/A Rain , Thunderstorm Light Thunderstorms and Rain
5:00 PM 59.0 °F 37.4 °F 45% 29.71 in 6.2 mi NE 11.5 mph - N/A   Mostly Cloudy
5:30 PM 59.0 °F 41.0 °F 51% 29.71 in 6.2 mi North 15.0 mph - N/A   Mostly Cloudy
6:00 PM 57.2 °F 41.0 °F 55% 29.71 in 6.2 mi North 17.3 mph - N/A   Mostly Cloudy
6:30 PM 57.2 °F 41.0 °F 55% 29.71 in - North 12.7 mph - N/A   Clear
7:00 PM 57.2 °F 41.0 °F 55% 29.71 in - North 11.5 mph - N/A   Clear
7:30 PM 57.2 °F 39.2 °F 51% 29.74 in - NNE 10.4 mph - N/A   Clear
8:00 PM 55.4 °F 39.2 °F 54% 29.74 in - NNE 11.5 mph - N/A   Clear
8:30 PM 55.4 °F 41.0 °F 58% 29.74 in - NNE 12.7 mph - N/A   Clear
9:00 PM 53.6 °F 41.0 °F 62% 29.77 in - NNE 10.4 mph - N/A   Clear
9:30 PM 53.6 °F 41.0 °F 62% 29.77 in - NE 9.2 mph - N/A   Clear
10:00 PM 51.8 °F 41.0 °F 67% 29.77 in - NE 8.1 mph - N/A   Clear
10:30 PM 51.8 °F 39.2 °F 62% 29.77 in - NE 9.2 mph - N/A   Clear
11:00 PM 51.8 °F 39.2 °F 62% 29.77 in - NE 6.9 mph - N/A   Clear
11:30 PM 50.0 °F 39.2 °F 66% 29.77 in - NE 4.6 mph - N/A   Clear